Regional Weather Roundup
Issued by NWS Memphis, TN

Home | Current Version | Previous Version | Text Only | Print | Product List | Glossary On
Versions: 1 2 3 4 5 6 7 8 9 10 11 12 13 14 15 16 17 18 19 20 21 22 23 24 25 26 27 28 29 30 31 32 33 34 35 36 37 38 39 40 41 42 43 44 45 46 47 48 49 50
000
ASUS44 KMEG 232010
RWRMEG
MEMPHIS CWA HOURLY WEATHER ROUNDUP
NATIONAL WEATHER SERVICE MEMPHIS TN
300 PM CDT THU OCT 23 2014

...WEST TENNESSEE...

CITY           SKY/WX    TMP DP  RH WIND       PRES   REMARKS
MEMPHIS INTL   CLOUDY    64  43  46 N7        30.13F
NWS MEMPHIS      N/A     63 N/A N/A MISG        N/A
JACKSON        CLOUDY    65  41  41 N6        30.12F
LEXINGTON      SUNNY     63  41  45 N5        30.12S
SAVANNAH       SUNNY     64  46  52 NW7       30.12S
DYERSBURG      CLOUDY    63  37  39 NW3       30.16S
UNION CITY     SUNNY     57  43  58 CALM      30.13F
PARIS          SUNNY     59  43  55 N3        30.14F
HUNTINGDON     CLOUDY    61  40  45 VRB5      30.14F


...EASTERN ARKANSAS...

CITY           SKY/WX    TMP DP  RH WIND       PRES   REMARKS
JONESBORO      CLOUDY    60  45  57 N5        30.15F
WEST MEMPHIS   CLOUDY    62  45  53 NW6       30.13F
BATESVILLE     CLOUDY    59  46  63 CALM      30.16F
NEWPORT        CLOUDY    59  46  61 W7        30.18F
WALNUT RIDGE   CLOUDY    57  43  58 SW7       30.17R
BLYTHEVILLE    CLOUDY    63  43  48 N5        30.15F
NW BLYTHEVILLE CLOUDY    63  46  55 N5        30.14
SEARCY         CLOUDY    63  45  51 N5        30.17F
STUTTGART      CLOUDY    63  45  51 N6        30.16S
PINE BLUFF     CLOUDY    62  44  51 N6        30.15F
MONTICELLO     CLOUDY    61  48  62 SW3       30.15R


...NORTH MISSISSIPPI...

CITY           SKY/WX    TMP DP  RH WIND       PRES   REMARKS
TUPELO         CLOUDY    65  44  46 VRB3      30.10F
OXFORD         CLOUDY    63  43  48 NW7       30.14S
OLIVE BRANCH   CLOUDY    61  45  55 N7        30.14F
TUNICA         CLOUDY    63  45  51 N6        30.15S
CLARKSDALE     CLOUDY    63  48  59 NW6       30.14F
CORINTH        CLOUDY    64  46  52 VRB7G13   30.11F
GRENADA          N/A    N/A N/A N/A MISG        N/A
GREENWOOD      CLOUDY    63  47  55 CALM      30.12F
COLUMBUS       CLOUDY    66  43  43 W5        30.10F
STARKVILLE     FAIR      64  45  48 NW5       30.10F
GOLDEN TRIANGL PTSUNNY   66  43  42 N7        30.09F


...SOUTHEAST MISSOURI...

CITY           SKY/WX    TMP DP  RH WIND       PRES   REMARKS
WEST PLAINS    CLOUDY    57  45  64 S6        30.16F
POPLAR BLUFF   CLOUDY    58  43  57 CALM      30.15F
CAPE GIRARDEAU CLOUDY    58  44  60 SW5       30.16F


...NORTHWEST ALABAMA...

CITY           SKY/WX    TMP DP  RH WIND       PRES   REMARKS
MUSCLE SHOALS  MOSUNNY   69  38  32 VRB5      30.10F


...MIDDLE TENNESSEE...

CITY           SKY/WX    TMP DP  RH WIND       PRES   REMARKS
NASHVILLE      PTSUNNY   64  40  41 N6        30.12F
CLARKSVILLE    CLOUDY    62  41  46 CALM      30.13F
COLUMBIA       SUNNY     66  43  42 NE5       30.10F


...WESTERN KENTUCKY...

CITY           SKY/WX    TMP DP  RH WIND       PRES   REMARKS
PADUCAH        CLOUDY    61  45  55 CALM      30.14F
FORT CAMPBELL  CLOUDY    61  42  48 E1        30.13F


...CENTRAL ARKANSAS...

CITY           SKY/WX    TMP DP  RH WIND       PRES   REMARKS
LITTLE ROCK    CLOUDY    66  45  46 CALM      30.16F


SKY/WX REPORTED AS FAIR MEANS FEW OR NO CLOUDS BELOW
12 THOUSAND FEET.




USA.gov is the U.S. government's official web portal to all federal, state and local government web resources and services.